Dewpoint
44 43 43 42 42 43 43 43 44 44 45 47 47 49 50 51 52 52 52 51 51 50 49 49 48 47 46 45 46 46 47 47 46 39 40 39 40 40 40 40 39 38 37
41 41 41 41 41 40 40 40 40 41 41 42 43 45 45 46 48 49 48 48 48 47 46 45 44 43 43 44 44 44 44 45 44 40 38 38 39 38 38 38 35 34 34
40 40 40 40 39 39 38 38 38 39 39 40 41 42 42 43 44 46 47 46 46 45 44 43 42 42 42 42 42 42 41 40 42 40 37 36 36 36 36 35 32 31 26
39 39 38 38 38 38 38 37 37 38 38 39 39 39 40 40 41 41 43 43 42 41 41 41 41 41 41 40 39 39 39 38 39 39 37 36 36 34 34 32 30 27 25
39 39 38 38 38 37 37 37 37 37 37 38 38 38 39 40 39 40 41 40 39 39 38 38 38 37 37 37 37 36 37 37 37 37 36 34 34 32 31 26 24 22 24
38 38 38 37 37 38 37 37 37 37 37 37 38 38 38 38 39 39 40 39 39 38 37 37 36 36 36 35 33 33 33 35 35 35 34 34 28 26 24 22 23 22 20
38 37 37 37 37 38 37 37 37 37 38 37 38 37 37 38 39 39 39 38 37 37 36 35 34 34 35 33 32 31 30 30 29 29 26 22 22 22 28 26 23 24 22
37 37 37 37 37 38 38 38 38 38 37 38 37 38 37 37 38 38 37 36 35 35 34 33 30 29 27 27 24 27 26 25 24 21 23 22 25 25 26 27 25 24 25
37 37 37 37 37 37 37 38 37 36 36 36 37 37 36 36 37 36 34 32 30 28 27 27 26 25 27 26 27 25 26 27 29 29 29 29 28 28 28 27 27 26 25
38 37 38 38 37 37 37 37 36 36 35 35 35 36 36 35 35 34 30 27 24 23 26 26 25 27 24 23 25 21 20 22 23 25 26 25 29 28 28 26 27 27 27
38 38 38 38 38 37 37 36 35 34 34 33 33 33 33 33 32 30 23 20 20 21 22 23 25 26 27 24 19 15 17 21 24 20 19 21 23 25 25 25 26 27 25
38 38 37 38 37 37 36 35 34 33 32 31 30 29 27 25 25 27 26 21 20 21 20 22 25 25 24 26 21 24 24 23 21 19 20 22 23 24 25 26 25 26 26
37 37 37 37 36 35 35 33 32 31 30 28 27 26 25 25 26 27 27 24 23 17 17 18 20 24 22 23 25 25 28 24 19 19 21 23 26 28 27 26 27 26 26
36 36 36 36 35 34 34 33 31 30 29 28 27 26 24 24 25 28 26 25 23 19 20 25 25 25 24 20 21 25 26 24 20 22 23 26 27 26 25 25 24 25 24
35 35 35 35 35 34 33 32 32 31 30 30 29 25 22 22 23 25 27 27 26 23 23 23 20 18 19 18 19 23 23 20 20 20 23 25 25 25 24 24 24 25 23
35 35 35 34 34 33 32 32 35 34 34 34 32 26 22 22 22 23 26 26 26 24 21 16 14 13 14 16 15 16 18 19 21 25 25 25 24 24 23 23 23 24 22
35 35 35 35 34 33 32 31 30 33 35 36 35 27 26 20 23 22 25 27 26 24 21 18 17 15 13 14 14 17 20 20 23 25 25 25 25 24 23 22 22 22 22
35 36 35 34 34 33 32 31 31 31 30 31 33 31 29 27 23 23 23 26 26 25 23 23 21 20 19 17 18 20 21 23 24 25 25 25 25 24 23 22 22 21 20
35 35 35 35 34 34 32 31 31 31 32 30 27 28 31 29 28 26 24 25 26 25 26 25 24 24 22 21 21 22 23 24 24 24 24 24 24 24 23 23 22 21 21
35 35 35 34 34 33 32 31 30 31 31 28 23 23 24 28 28 27 25 25 26 26 25 24 25 24 23 22 23 23 23 22 23 24 24 24 24 24 23 22 22 21 20
35 35 36 35 32 32 32 31 30 30 30 30 30 23 21 25 27 27 26 24 25 26 27 25 24 23 23 23 24 24 23 23 23 23 23 23 23 22 22 22 21 21 20
35 35 34 35 33 32 31 31 31 30 30 31 31 30 24 22 23 25 26 26 24 25 27 27 26 25 26 25 25 25 24 23 23 22 22 22 22 22 21 20 19 19 19
35 34 34 34 34 33 32 32 31 31 31 31 31 31 26 22 21 19 20 23 24 25 25 25 26 27 27 27 27 26 24 23 23 23 22 21 20 20 19 19 18 18 18
35 34 34 33 33 33 32 31 31 31 31 31 31 31 30 23 21 22 22 20 20 22 23 25 25 25 26 27 27 26 25 24 25 24 22 21 20 19 19 18 18 18 18
33 33 33 33 33 33 33 32 31 31 30 30 30 31 31 30 29 26 23 23 26 24 22 22 23 24 25 25 25 25 25 24 24 24 23 21 20 19 19 18 18 18 18
31 31 32 32 33 32 32 32 32 32 31 31 30 31 31 31 30 30 30 30 29 27 26 24 23 23 23 25 25 25 24 24 23 23 22 20 19 18 18 18 17 18 18
Wind_Speed
9 8 7 7 6 5 5 4 3 2 1 1 1 1 1 1 0 2 4 6 9 9 9 9 8 6 6 5 3 2 3 3 6 2 2 1 2 3 3 2 1 3 5
11 10 8 7 7 6 4 3 2 3 2 4 4 2 1 1 0 4 5 6 8 9 8 9 9 6 6 5 4 4 4 1 3 6 2 3 2 2 2 2 2 3 3
11 10 10 7 6 5 5 3 3 1 2 2 3 3 3 3 2 1 4 5 6 6 7 7 8 8 7 5 5 5 4 3 3 5 4 3 2 4 5 4 3 4 3
10 9 8 7 6 4 4 3 3 2 1 1 1 1 1 1 1 1 3 5 7 7 7 7 6 6 8 7 6 6 5 6 5 8 5 5 5 3 1 2 4 3 3
10 9 8 6 5 5 4 4 3 3 2 2 1 1 2 2 2 2 5 6 8 9 8 9 7 8 8 6 5 5 5 5 7 7 6 5 5 5 3 4 1 2 5
9 8 7 6 5 5 4 4 3 1 1 1 1 1 1 2 2 1 4 7 8 10 11 11 11 11 11 11 10 11 8 4 5 4 4 6 4 5 3 3 3 2 1
8 8 8 7 6 5 5 3 2 2 0 1 2 2 2 2 3 5 5 8 9 10 11 10 8 9 9 10 11 12 12 11 8 2 5 2 6 3 4 2 2 0 2
10 9 8 8 7 6 5 4 3 2 1 2 2 3 3 3 6 8 10 9 9 8 8 7 8 8 5 6 7 7 7 8 8 5 7 7 8 6 5 4 2 1 3
11 11 10 9 8 7 6 5 4 4 4 4 4 5 5 5 8 11 9 8 7 6 5 6 8 8 7 6 7 7 8 8 7 9 10 8 7 4 4 3 2 1 1
11 9 9 9 8 8 7 6 5 4 5 6 6 5 6 7 8 9 8 7 8 7 5 5 3 8 7 6 7 7 7 7 6 6 5 5 6 5 3 3 3 1 2
9 9 9 9 8 7 6 5 7 7 7 7 8 5 5 7 9 9 6 5 7 7 6 7 6 7 7 5 0 3 4 9 5 4 5 6 4 5 3 4 5 2 2
10 10 10 9 8 7 8 7 8 9 9 8 7 7 7 7 8 10 8 4 5 7 6 6 6 7 6 6 3 5 7 4 6 5 5 6 5 5 4 3 4 3 2
10 10 10 9 9 9 10 10 10 10 10 9 9 9 8 6 7 8 8 7 8 5 4 6 7 8 6 5 6 7 9 5 5 5 6 5 3 4 4 1 3 4 6
9 9 9 9 9 9 8 9 10 11 11 10 10 10 8 8 7 8 9 9 8 5 7 7 7 6 8 7 6 8 8 7 6 6 6 6 6 5 5 3 3 4 5
8 8 8 9 11 10 9 11 11 12 14 13 11 10 10 10 11 11 11 10 10 9 9 6 6 7 9 8 9 9 8 7 7 6 6 7 7 8 6 4 5 4 6
8 8 8 9 9 10 9 8 12 11 15 16 14 12 8 9 10 15 15 13 11 11 8 8 9 10 11 11 11 10 10 10 9 8 8 8 8 7 6 6 6 7 8
9 8 8 10 9 10 10 10 11 11 14 17 17 15 13 8 12 12 16 15 14 13 11 10 10 11 11 11 10 11 11 10 8 9 9 9 8 8 8 7 8 8 9
10 9 9 9 10 10 10 11 11 11 13 12 17 18 17 15 13 13 13 14 13 16 13 12 11 11 10 11 11 11 10 9 10 10 10 10 10 10 9 10 10 9 9
11 10 11 11 10 10 10 11 12 12 11 10 10 15 20 18 17 16 17 15 15 15 16 15 12 11 11 11 11 11 11 11 11 11 11 11 11 11 11 11 11 13 12
11 12 11 11 11 11 11 11 11 12 12 12 13 13 12 16 16 16 16 16 17 16 15 15 14 13 13 12 12 12 12 12 12 12 11 11 11 12 12 12 12 12 12
9 10 13 11 12 12 12 13 12 12 14 14 15 13 16 16 17 16 17 18 18 18 17 16 14 14 14 13 13 13 14 13 13 13 13 13 12 13 12 12 12 12 12
8 10 10 12 11 12 13 13 13 14 14 15 14 14 20 19 16 17 18 18 18 18 16 16 16 16 16 17 16 15 16 16 14 14 13 13 12 12 11 12 12 12 12
8 10 10 11 11 13 13 13 14 14 15 15 14 14 15 19 19 18 19 18 17 17 16 17 17 16 16 17 17 17 18 18 17 15 15 14 14 13 13 13 13 13 12
8 10 11 11 11 12 13 14 14 17 17 16 16 16 17 18 19 20 19 17 17 17 17 18 19 20 18 18 17 17 17 15 14 16 17 14 14 14 13 13 13 14 12
9 9 10 11 11 12 13 14 14 15 16 16 17 17 17 19 19 20 18 17 17 18 18 18 18 20 23 22 20 20 20 21 18 16 15 15 15 15 14 14 13 13 13
10 10 10 10 11 12 12 13 14 14 15 16 16 17 17 18 19 19 18 18 18 18 18 18 20 22 22 22 24 23 23 23 22 21 15 14 15 14 13 15 15 13 13
Wind_Direction
136 134 131 121 106 98 105 108 97 107 336 248 258 256 323 332 99 123 138 144 145 138 133 132 113 134 125 117 123 156 199 215 227 118 106 113 122 121 130 118 77 82 87
131 135 133 131 130 123 118 99 64 40 4 349 336 333 323 293 226 136 143 136 144 140 132 132 133 130 123 138 154 166 173 223 183 161 141 153 111 105 124 144 93 77 74
137 142 143 141 131 137 122 103 84 59 34 5 346 332 319 325 286 185 154 154 138 137 135 142 145 150 138 144 141 154 142 168 154 147 146 148 124 185 177 158 84 88 75
144 147 141 136 132 125 108 96 82 57 50 60 48 16 347 351 5 117 140 126 115 100 97 104 120 139 146 146 149 149 155 153 143 129 127 143 162 153 177 147 160 135 80
153 149 137 130 118 120 106 87 76 67 40 30 82 76 62 20 19 126 127 126 125 118 110 107 98 99 103 126 147 143 142 171 159 131 150 159 163 186 175 96 29 52 130
153 147 142 141 139 129 126 115 100 79 81 39 27 88 38 11 73 78 131 133 129 129 119 113 118 112 105 100 88 69 56 152 131 137 124 183 146 115 121 93 59 321 180
165 160 163 161 162 159 152 146 151 147 131 57 15 1 37 77 144 134 106 99 108 114 121 121 118 108 116 105 102 94 81 73 75 153 165 100 135 109 90 100 80 186 266
175 176 178 177 175 174 182 181 184 178 195 150 149 116 112 121 147 126 121 120 131 135 137 141 136 136 129 147 117 105 101 74 52 52 74 82 87 117 112 148 198 314 269
186 185 186 188 186 188 190 203 194 180 173 161 153 144 139 119 140 144 126 123 122 135 139 154 136 133 146 154 136 141 119 107 82 78 82 87 86 71 46 138 182 306 280
195 189 187 190 194 196 201 186 170 186 175 162 151 158 150 143 154 165 157 143 149 154 156 115 134 133 149 163 163 169 162 156 138 139 131 116 124 85 93 348 88 155 7
182 176 182 185 193 188 178 169 176 171 167 173 169 173 173 181 175 177 176 179 157 170 172 161 156 154 164 151 100 168 187 132 161 170 152 143 161 143 136 72 61 123 240
171 176 180 182 184 184 182 180 177 172 174 182 184 193 196 190 185 191 189 199 182 180 188 171 163 172 171 164 175 140 146 149 165 176 171 174 177 150 126 55 34 358 290
175 183 185 188 194 193 188 180 176 178 181 189 197 202 195 199 193 197 201 203 197 189 175 176 168 174 176 186 189 189 169 199 183 182 193 176 164 112 99 176 218 252 257
189 194 194 198 201 199 189 183 183 185 191 193 206 214 200 188 201 180 192 190 187 178 170 169 166 187 197 210 192 202 200 206 197 205 193 160 154 184 212 224 252 266 278
205 204 200 210 205 199 198 194 200 203 196 194 207 214 205 204 207 199 190 188 183 185 175 164 181 200 204 206 209 202 198 201 205 220 180 185 202 204 210 222 229 244 251
209 210 211 213 213 200 197 210 218 213 212 214 220 223 217 220 208 207 206 202 195 187 185 195 208 208 210 209 206 207 211 212 206 194 199 210 214 210 233 235 232 231 251
216 215 209 220 218 208 200 206 218 220 224 221 224 224 226 214 216 211 212 210 208 200 210 216 220 213 217 217 212 211 208 206 201 199 207 212 212 221 237 240 248 252 254
221 228 204 218 218 212 208 208 205 204 207 218 225 224 227 225 223 220 215 209 214 217 217 221 220 220 214 214 213 213 211 201 194 204 214 215 213 219 224 228 235 244 254
219 219 215 221 216 213 207 204 207 208 212 219 206 217 223 224 225 222 216 211 212 216 218 224 222 218 216 212 211 209 205 206 206 205 212 213 216 216 227 235 238 244 242
226 226 219 216 215 217 209 208 208 212 214 219 220 215 205 210 214 216 214 215 219 223 219 222 216 214 212 206 205 205 205 212 215 209 212 214 219 219 224 231 235 242 243
228 225 228 221 214 215 213 213 213 211 216 218 223 226 210 204 212 212 211 215 219 222 221 217 217 213 207 205 203 203 206 210 209 210 210 210 211 220 223 233 238 240 243
231 228 227 232 217 217 221 218 217 219 223 224 225 224 228 221 220 219 219 218 219 221 220 216 217 215 209 205 203 204 207 211 211 205 208 209 209 215 221 230 234 239 240
250 241 235 234 229 227 228 223 223 225 228 227 225 225 221 226 224 225 226 224 220 220 217 216 217 217 214 209 205 203 205 210 207 201 201 200 206 212 216 224 228 234 236
304 257 247 243 236 231 232 231 230 231 231 231 226 222 221 229 232 231 229 228 223 223 219 217 217 218 216 209 207 207 209 207 195 198 195 198 204 209 214 221 226 231 236
315 305 280 263 253 249 247 241 238 236 234 234 234 231 228 225 228 234 238 232 228 227 223 219 220 221 216 210 209 207 206 201 194 190 193 198 203 204 211 220 225 229 230
321 316 306 296 275 262 255 253 249 245 242 240 237 236 234 232 231 233 232 230 232 234 232 225 223 218 216 216 214 207 204 204 204 200 190 193 199 207 211 220 224 228 236